Вернуться в каталог

STARLINK-32033

АктивенСвязьVLEO
NORAD 60144·PAYLOAD·🇺🇸 United States

Запущен Jun 27, 2024 с Cape Canaveral Space Force Station

Loading…

Ближайшие Пролёты (ближайшие 24 часа)

TLE

СвежийSource: CelesTrak SupGP

Эпоха: Sep 14, 2026, 22:37 UTC

1 60144C 24120K   26257.94284722 -.00056102  00000+0 -16574-2 0  2571
2 60144  53.1561 157.9966 0001310  86.9076 221.4479 15.34422109    13

Отслеживайте STARLINK-32033 в реальном времени с AllMySat

Download on the App Store